Location: Cahas Mountain Overlook
(37.0833°N, 80.1000°W)
Time: 08:46:38
(UTC-05:00)

S-56A Canister/Altair - Pass Details

Date: 04 December 2023
Orbit: 640 x 2488 km, 38.9° (Epoch: 25 February)

Event Time Altitude Azimuth Distance (km) Brightness Sun altitude
Rises 14:58:17 0° 279° (W) 2,932 11.0 18.7°
Reaches altitude 10° 15:00:27 10° 281° (W) 2,051 10.2 18.4°
Maximum altitude 15:05:00 77° 8° (N) 748 7.7 17.8°
Drops below altitude 10° 15:10:48 10° 95° (E) 2,589 9.9 17.0°
Sets 15:13:51 0° 97° (E) 3,781 10.7 16.6°
